User: anonymous   Login
Location: Unspecified
(0.0000°N, 0.0000°E)
Time: 20:24:55
(UTC+00:00)
Language:

STARLINK-35860 - Orbit

View from above orbital plane
View from above orbital plane
View from above satellite
View from above satellite

Ground track
Ground track

The orbit is defined by the following mean orbital elements,

1 66881U          26145.40376985 +.00000000 +00000-0 +56801-3 0 00005
2 66881  53.1613  27.5353 0001592 102.8280 257.2899 15.30206127    02
Epoch (UTC): 25 May 2026 09:41:25
Eccentricity: 0.0001592
inclination: 53.1613°
perigee height: 474 km
apogee height: 476 km
right ascension of ascending node: 27.5353°
argument of perigee: 102.8280°
revolutions per day: 15.30206127
mean anomaly at epoch: 257.2899°

The dashed part of the orbit path shows where the satellite is in the earth's shadow,  

DLR